Time,TemperatureF,DewpointF,PressureIn,WindDirection,WindDirectionDegrees,WindSpeedMPH,WindSpeedGustMPH,Humidity,HourlyPrecipIn,Conditions,Clouds,dailyrainin,SoftwareType,DateUTC
2013-06-28 00:01:00,72.0,67.9,29.65,WSW,248,0.0,0.0,87,0.00,,---,0.00,VWS V14.00,2013-06-28 04:01:00,
2013-06-28 00:02:00,72.0,67.9,29.65,WSW,248,0.0,0.0,87,0.00,,---,0.00,VWS V14.00,2013-06-28 04:02:00,
2013-06-28 00:03:00,72.0,67.9,29.65,WSW,248,0.0,0.0,87,0.00,,---,0.00,VWS V14.00,2013-06-28 04:03:00,
2013-06-28 00:08:00,72.0,67.9,29.65,WSW,248,0.0,0.0,87,0.00,,---,0.00,VWS V14.00,2013-06-28 04:08:00,
2013-06-28 00:14:00,71.8,68.0,29.65,WSW,248,0.0,0.0,88,0.00,,---,0.00,VWS V14.00,2013-06-28 04:14:00,
2013-06-28 00:19:00,71.6,67.9,29.65,West,270,0.0,0.0,88,0.00,,---,0.00,VWS V14.00,2013-06-28 04:19:00,
2013-06-28 00:24:00,71.4,68.0,29.65,West,270,0.0,0.0,89,0.00,,---,0.00,VWS V14.00,2013-06-28 04:24:00,
2013-06-28 00:29:00,71.4,68.0,29.65,WSW,248,0.0,0.0,89,0.00,,---,0.00,VWS V14.00,2013-06-28 04:29:00,
2013-06-28 00:34:00,71.2,67.8,29.65,WSW,248,0.0,0.0,89,0.00,,---,0.00,VWS V14.00,2013-06-28 04:34:00,
2013-06-28 00:39:00,71.1,68.0,29.65,WSW,248,0.0,0.0,90,0.00,,---,0.00,VWS V14.00,2013-06-28 04:39:00,
2013-06-28 00:44:00,70.9,67.8,29.65,WSW,248,0.0,0.0,90,0.00,,---,0.00,VWS V14.00,2013-06-28 04:44:00,
2013-06-28 00:49:00,70.9,67.8,29.65,WSW,248,0.0,0.0,90,0.00,,---,0.00,VWS V14.00,2013-06-28 04:49:00,
2013-06-28 00:54:00,70.7,67.6,29.62,WSW,248,0.0,0.0,90,0.00,,---,0.00,VWS V14.00,2013-06-28 04:54:00,
2013-06-28 00:59:00,70.5,67.8,29.62,WSW,248,0.0,0.0,91,0.00,,---,0.00,VWS V14.00,2013-06-28 04:59:00,
2013-06-28 01:05:00,70.5,67.8,29.62,WSW,248,0.0,0.0,91,0.00,,---,0.00,VWS V14.00,2013-06-28 05:05:00,
2013-06-28 01:10:00,70.3,67.6,29.65,WSW,248,0.0,0.0,91,0.00,,---,0.00,VWS V14.00,2013-06-28 05:10:00,
2013-06-28 01:15:00,70.2,67.4,29.65,WSW,248,0.0,0.0,91,0.00,,---,0.00,VWS V14.00,2013-06-28 05:15:00,
2013-06-28 01:20:00,70.2,67.4,29.65,WSW,248,0.0,0.0,91,0.00,,---,0.00,VWS V14.00,2013-06-28 05:20:00,
2013-06-28 01:25:00,70.2,67.4,29.65,WSW,248,0.0,0.0,91,0.00,,---,0.00,VWS V14.00,2013-06-28 05:25:00,
2013-06-28 01:30:00,70.0,67.6,29.65,WSW,248,0.0,0.0,92,0.00,,---,0.00,VWS V14.00,2013-06-28 05:30:00,
2013-06-28 01:35:00,70.0,67.6,29.65,WSW,248,0.0,0.0,92,0.00,,---,0.00,VWS V14.00,2013-06-28 05:35:00,
2013-06-28 01:40:00,69.8,67.4,29.65,WSW,248,0.0,0.0,92,0.00,,---,0.00,VWS V14.00,2013-06-28 05:40:00,
2013-06-28 01:45:00,69.8,67.4,29.65,WSW,248,0.0,0.0,92,0.00,,---,0.00,VWS V14.00,2013-06-28 05:45:00,
2013-06-28 01:50:00,69.8,67.4,29.65,WSW,248,0.0,0.0,92,0.00,,---,0.00,VWS V14.00,2013-06-28 05:50:00,
2013-06-28 01:55:00,69.6,67.2,29.65,WSW,248,0.0,0.0,92,0.00,,---,0.00,VWS V14.00,2013-06-28 05:55:00,
2013-06-28 02:00:00,69.6,67.2,29.65,WNW,292,0.0,0.0,92,0.00,,---,0.00,VWS V14.00,2013-06-28 06:00:00,
2013-06-28 02:05:00,69.4,67.3,29.65,WNW,292,0.0,0.0,93,0.00,,---,0.00,VWS V14.00,2013-06-28 06:05:00,
2013-06-28 02:10:00,69.4,67.3,29.65,WSW,248,0.0,0.0,93,0.00,,---,0.00,VWS V14.00,2013-06-28 06:10:00,
2013-06-28 02:15:00,69.3,67.2,29.65,West,270,0.0,0.0,93,0.00,,---,0.00,VWS V14.00,2013-06-28 06:15:00,
2013-06-28 02:20:00,69.3,67.2,29.65,West,270,0.0,0.0,93,0.00,,---,0.00,VWS V14.00,2013-06-28 06:20:00,
2013-06-28 02:25:00,69.1,67.0,29.65,West,270,0.0,0.0,93,0.00,,---,0.00,VWS V14.00,2013-06-28 06:25:00,
2013-06-28 02:30:00,69.1,67.0,29.65,West,270,0.0,0.0,93,0.00,,---,0.00,VWS V14.00,2013-06-28 06:30:00,
2013-06-28 02:35:00,68.9,66.8,29.65,West,270,0.0,0.0,93,0.00,,---,0.00,VWS V14.00,2013-06-28 06:35:00,
2013-06-28 02:40:00,68.9,66.8,29.65,West,270,0.0,0.0,93,0.00,,---,0.00,VWS V14.00,2013-06-28 06:40:00,
2013-06-28 02:45:00,68.7,66.6,29.65,West,270,0.0,0.0,93,0.00,,---,0.00,VWS V14.00,2013-06-28 06:45:00,
2013-06-28 02:50:00,68.7,66.6,29.65,West,270,0.0,0.0,93,0.00,,---,0.00,VWS V14.00,2013-06-28 06:50:00,
2013-06-28 02:55:00,68.5,66.4,29.65,West,270,0.0,0.0,93,0.00,,---,0.00,VWS V14.00,2013-06-28 06:55:00,
2013-06-28 03:00:00,68.5,66.4,29.65,West,270,0.0,0.0,93,0.00,,---,0.00,VWS V14.00,2013-06-28 07:00:00,
2013-06-28 03:05:00,68.4,66.3,29.65,West,270,0.0,0.0,93,0.00,,---,0.00,VWS V14.00,2013-06-28 07:05:00,
2013-06-28 03:10:00,68.4,66.3,29.62,West,270,0.0,0.0,93,0.00,,---,0.00,VWS V14.00,2013-06-28 07:10:00,
2013-06-28 03:15:00,68.4,66.3,29.62,West,270,0.0,0.0,93,0.00,,---,0.00,VWS V14.00,2013-06-28 07:15:00,
2013-06-28 03:20:00,68.2,66.1,29.62,West,270,0.0,0.0,93,0.00,,---,0.00,VWS V14.00,2013-06-28 07:20:00,
2013-06-28 03:25:00,68.0,65.9,29.62,WSW,248,0.0,0.0,93,0.00,,---,0.00,VWS V14.00,2013-06-28 07:25:00,
2013-06-28 03:30:00,68.0,65.9,29.62,WSW,248,0.0,0.0,93,0.00,,---,0.00,VWS V14.00,2013-06-28 07:30:00,
2013-06-28 03:35:00,67.8,65.7,29.62,WSW,248,0.0,0.0,93,0.00,,---,0.00,VWS V14.00,2013-06-28 07:35:00,
2013-06-28 03:40:00,67.6,65.6,29.62,WSW,248,0.0,0.0,93,0.00,,---,0.00,VWS V14.00,2013-06-28 07:40:00,
2013-06-28 03:45:00,67.6,65.6,29.62,WSW,248,0.0,0.0,93,0.00,,---,0.00,VWS V14.00,2013-06-28 07:45:00,
2013-06-28 03:50:00,67.5,65.4,29.62,WSW,248,0.0,0.0,93,0.00,,---,0.00,VWS V14.00,2013-06-28 07:50:00,
2013-06-28 03:55:00,67.3,65.2,29.62,WSW,248,0.0,0.0,93,0.00,,---,0.00,VWS V14.00,2013-06-28 07:55:00,
2013-06-28 04:00:00,67.3,65.2,29.62,WSW,248,0.0,0.0,93,0.00,,---,0.00,VWS V14.00,2013-06-28 08:00:00,
2013-06-28 04:05:00,67.3,65.2,29.62,West,270,0.0,0.0,93,0.00,,---,0.00,VWS V14.00,2013-06-28 08:05:00,
2013-06-28 04:10:00,67.3,65.2,29.62,West,270,0.0,0.0,93,0.00,,---,0.00,VWS V14.00,2013-06-28 08:10:00,
2013-06-28 04:16:00,67.1,65.0,29.62,West,270,0.0,0.0,93,0.00,,---,0.00,VWS V14.00,2013-06-28 08:16:00,
2013-06-28 04:21:00,67.1,65.0,29.62,West,270,0.0,0.0,93,0.00,,---,0.00,VWS V14.00,2013-06-28 08:21:00,
2013-06-28 04:26:00,67.1,65.0,29.62,WSW,248,0.0,0.0,93,0.00,,---,0.00,VWS V14.00,2013-06-28 08:26:00,
2013-06-28 04:31:00,67.1,65.3,29.62,WSW,248,0.0,0.0,94,0.00,,---,0.00,VWS V14.00,2013-06-28 08:31:00,
2013-06-28 04:36:00,67.1,65.3,29.62,WSW,248,0.0,0.0,94,0.00,,---,0.00,VWS V14.00,2013-06-28 08:36:00,
2013-06-28 04:41:00,67.1,65.3,29.62,West,270,0.0,0.0,94,0.00,,---,0.00,VWS V14.00,2013-06-28 08:41:00,
2013-06-28 04:46:00,66.9,65.1,29.62,WSW,248,0.0,0.0,94,0.00,,---,0.00,VWS V14.00,2013-06-28 08:46:00,
2013-06-28 04:51:00,66.9,65.1,29.62,WSW,248,0.0,0.0,94,0.00,,---,0.00,VWS V14.00,2013-06-28 08:51:00,
2013-06-28 04:56:00,66.9,65.1,29.59,WSW,248,0.0,0.0,94,0.00,,---,0.00,VWS V14.00,2013-06-28 08:56:00,
2013-06-28 05:01:00,66.9,65.1,29.59,WSW,248,0.0,0.0,94,0.00,,---,0.00,VWS V14.00,2013-06-28 09:01:00,
2013-06-28 05:06:00,66.9,65.1,29.59,West,270,0.0,0.0,94,0.00,,---,0.00,VWS V14.00,2013-06-28 09:06:00,
2013-06-28 05:11:00,66.7,65.0,29.59,WSW,248,0.0,0.0,94,0.00,,---,0.00,VWS V14.00,2013-06-28 09:11:00,
2013-06-28 05:16:00,66.7,65.0,29.59,WSW,248,0.0,0.0,94,0.00,,---,0.00,VWS V14.00,2013-06-28 09:16:00,
2013-06-28 05:21:00,66.7,65.0,29.59,West,270,0.0,0.9,94,0.00,,---,0.00,VWS V14.00,2013-06-28 09:21:00,
2013-06-28 05:27:00,66.7,65.3,29.62,West,270,0.0,0.0,95,0.00,,---,0.00,VWS V14.00,2013-06-28 09:27:00,
2013-06-28 05:32:00,66.7,65.3,29.62,West,270,2.2,2.2,95,0.00,,---,0.00,VWS V14.00,2013-06-28 09:32:00,
2013-06-28 05:37:00,66.7,65.3,29.62,West,270,0.0,0.0,95,0.00,,---,0.00,VWS V14.00,2013-06-28 09:37:00,
2013-06-28 05:42:00,66.7,65.3,29.62,WSW,248,0.0,0.0,95,0.00,,---,0.00,VWS V14.00,2013-06-28 09:42:00,
2013-06-28 05:47:00,66.7,65.3,29.62,West,270,0.0,0.0,95,0.00,,---,0.00,VWS V14.00,2013-06-28 09:47:00,
2013-06-28 05:52:00,66.7,65.3,29.62,West,270,0.0,0.0,95,0.00,,---,0.00,VWS V14.00,2013-06-28 09:52:00,
2013-06-28 05:57:00,66.7,65.3,29.59,WSW,248,0.0,0.0,95,0.00,,---,0.00,VWS V14.00,2013-06-28 09:57:00,
2013-06-28 06:02:00,66.7,65.3,29.59,West,270,0.0,0.0,95,0.00,,---,0.00,VWS V14.00,2013-06-28 10:02:00,
2013-06-28 06:07:00,66.7,65.3,29.59,WSW,248,2.7,2.7,95,0.00,,---,0.00,VWS V14.00,2013-06-28 10:07:00,
2013-06-28 06:12:00,66.7,65.3,29.62,SW,225,0.0,0.0,95,0.00,,---,0.00,VWS V14.00,2013-06-28 10:12:00,
2013-06-28 06:17:00,66.7,65.3,29.62,WSW,248,0.0,0.0,95,0.00,,---,0.00,VWS V14.00,2013-06-28 10:17:00,
2013-06-28 06:22:00,66.7,65.3,29.62,NNE,22,0.0,0.0,95,0.00,,---,0.00,VWS V14.00,2013-06-28 10:22:00,
2013-06-28 06:28:00,66.7,65.3,29.59,WSW,248,0.0,0.0,95,0.00,,---,0.00,VWS V14.00,2013-06-28 10:28:00,
2013-06-28 06:33:00,66.7,65.0,29.59,WSW,248,0.0,0.0,94,0.00,,---,0.00,VWS V14.00,2013-06-28 10:33:00,
2013-06-28 06:38:00,66.7,65.0,29.59,WSW,248,0.0,0.0,94,0.00,,---,0.00,VWS V14.00,2013-06-28 10:38:00,
2013-06-28 06:43:00,66.7,65.0,29.62,West,270,0.0,0.0,94,0.00,,---,0.00,VWS V14.00,2013-06-28 10:43:00,
2013-06-28 06:48:00,66.7,65.0,29.62,WSW,248,0.0,0.0,94,0.00,,---,0.00,VWS V14.00,2013-06-28 10:48:00,
2013-06-28 06:53:00,66.7,65.0,29.62,WSW,248,0.0,0.0,94,0.00,,---,0.00,VWS V14.00,2013-06-28 10:53:00,
2013-06-28 06:58:00,66.7,65.0,29.59,West,270,0.0,0.0,94,0.00,,---,0.00,VWS V14.00,2013-06-28 10:58:00,
2013-06-28 07:03:00,66.7,65.0,29.59,West,270,0.0,0.0,94,0.00,,---,0.00,VWS V14.00,2013-06-28 11:03:00,
2013-06-28 07:08:00,66.7,65.0,29.59,WSW,248,0.0,0.0,94,0.00,,---,0.00,VWS V14.00,2013-06-28 11:08:00,
2013-06-28 07:13:00,66.7,65.0,29.59,WNW,292,0.0,0.0,94,0.00,,---,0.00,VWS V14.00,2013-06-28 11:13:00,
2013-06-28 07:18:00,66.7,65.0,29.59,WSW,248,0.0,0.0,94,0.00,,---,0.00,VWS V14.00,2013-06-28 11:18:00,
2013-06-28 07:23:00,66.7,65.0,29.59,West,270,0.0,0.0,94,0.00,,---,0.00,VWS V14.00,2013-06-28 11:23:00,
2013-06-28 07:28:00,66.7,65.0,29.62,West,270,0.0,0.0,94,0.00,,---,0.00,VWS V14.00,2013-06-28 11:28:00,
2013-06-28 07:33:00,66.9,64.8,29.62,West,270,0.0,2.9,93,0.00,,---,0.00,VWS V14.00,2013-06-28 11:33:00,
2013-06-28 07:38:00,66.9,64.8,29.62,West,270,0.0,0.0,93,0.00,,---,0.00,VWS V14.00,2013-06-28 11:38:00,
2013-06-28 07:43:00,67.1,65.0,29.62,West,270,0.0,0.0,93,0.00,,---,0.00,VWS V14.00,2013-06-28 11:43:00,
2013-06-28 07:48:00,67.1,64.7,29.62,West,270,0.0,0.0,92,0.00,,---,0.00,VWS V14.00,2013-06-28 11:48:00,
2013-06-28 07:53:00,67.3,64.9,29.62,West,270,0.0,0.0,92,0.00,,---,0.00,VWS V14.00,2013-06-28 11:53:00,
2013-06-28 07:58:00,67.6,64.9,29.62,West,270,0.0,0.0,91,0.00,,---,0.00,VWS V14.00,2013-06-28 11:58:00,
2013-06-28 08:03:00,67.8,64.8,29.62,West,270,0.0,0.0,90,0.00,,---,0.00,VWS V14.00,2013-06-28 12:03:00,
2013-06-28 08:08:00,68.2,64.5,29.59,WNW,292,0.0,0.0,88,0.00,,---,0.00,VWS V14.00,2013-06-28 12:08:00,
2013-06-28 08:13:00,68.5,64.5,29.59,WSW,248,0.0,0.0,87,0.00,,---,0.00,VWS V14.00,2013-06-28 12:13:00,
2013-06-28 08:18:00,68.9,63.9,29.59,West,270,0.0,0.0,84,0.00,,---,0.00,VWS V14.00,2013-06-28 12:18:00,
2013-06-28 08:24:00,69.1,64.1,29.59,WSW,248,0.0,2.2,84,0.00,,---,0.00,VWS V14.00,2013-06-28 12:24:00,
2013-06-28 08:29:00,69.3,63.5,29.59,WSW,248,0.0,0.0,82,0.00,,---,0.00,VWS V14.00,2013-06-28 12:29:00,
2013-06-28 08:33:00,69.4,63.7,29.59,West,270,0.0,1.1,82,0.00,,---,0.00,VWS V14.00,2013-06-28 12:33:00,
2013-06-28 08:39:00,69.6,63.9,29.62,West,270,2.0,3.4,82,0.00,,---,0.00,VWS V14.00,2013-06-28 12:39:00,
2013-06-28 08:44:00,69.8,63.7,29.62,WNW,292,2.5,2.5,81,0.00,,---,0.00,VWS V14.00,2013-06-28 12:44:00,
2013-06-28 08:49:00,70.0,63.2,29.62,West,270,2.0,2.7,79,0.00,,---,0.00,VWS V14.00,2013-06-28 12:49:00,
2013-06-28 08:54:00,70.0,63.2,29.62,NNE,22,2.0,2.2,79,0.00,,---,0.00,VWS V14.00,2013-06-28 12:54:00,
2013-06-28 08:59:00,70.2,63.0,29.62,WSW,248,0.0,1.1,78,0.00,,---,0.00,VWS V14.00,2013-06-28 12:59:00,
2013-06-28 09:04:00,70.3,63.2,29.62,West,270,2.0,3.6,78,0.00,,---,0.00,VWS V14.00,2013-06-28 13:04:00,
2013-06-28 09:09:00,70.5,63.3,29.62,NNW,338,2.0,2.2,78,0.00,,---,0.00,VWS V14.00,2013-06-28 13:09:00,
2013-06-28 09:14:00,70.7,63.1,29.62,SW,225,0.0,1.3,77,0.00,,---,0.00,VWS V14.00,2013-06-28 13:14:00,
2013-06-28 09:19:00,70.7,62.8,29.62,SW,225,0.0,0.0,76,0.00,,---,0.00,VWS V14.00,2013-06-28 13:19:00,
2013-06-28 09:24:00,70.9,62.6,29.62,NNW,338,0.0,0.9,75,0.00,,---,0.00,VWS V14.00,2013-06-28 13:24:00,
2013-06-28 09:29:00,70.9,62.6,29.62,NNW,338,1.6,2.7,75,0.00,,---,0.00,VWS V14.00,2013-06-28 13:29:00,
2013-06-28 09:33:00,71.1,62.4,29.62,WSW,248,0.9,0.9,74,0.00,,---,0.00,VWS V14.00,2013-06-28 13:33:00,
2013-06-28 09:38:00,71.1,62.0,29.62,WSW,248,1.6,2.5,73,0.00,,---,0.00,VWS V14.00,2013-06-28 13:38:00,
2013-06-28 09:44:00,71.2,62.5,29.62,WSW,248,0.0,2.5,74,0.00,,---,0.00,VWS V14.00,2013-06-28 13:44:00,
2013-06-28 09:49:00,71.4,62.3,29.62,WSW,248,0.9,0.9,73,0.00,,---,0.00,VWS V14.00,2013-06-28 13:49:00,
2013-06-28 09:54:00,71.4,61.9,29.62,WSW,248,1.3,2.2,72,0.00,,---,0.00,VWS V14.00,2013-06-28 13:54:00,
2013-06-28 09:59:00,71.8,63.1,29.62,West,270,0.0,0.0,74,0.00,,---,0.00,VWS V14.00,2013-06-28 13:59:00,
2013-06-28 10:04:00,71.6,62.5,29.62,SSW,202,2.0,2.0,73,0.00,,---,0.00,VWS V14.00,2013-06-28 14:04:00,
2013-06-28 10:09:00,72.0,63.6,29.62,West,270,1.6,2.0,75,0.00,,---,0.00,VWS V14.00,2013-06-28 14:09:00,
2013-06-28 10:14:00,72.1,63.0,29.62,NNW,338,1.1,2.5,73,0.00,,---,0.00,VWS V14.00,2013-06-28 14:14:00,
2013-06-28 10:19:00,72.3,62.8,29.62,West,270,2.0,2.0,72,0.00,,---,0.00,VWS V14.00,2013-06-28 14:19:00,
2013-06-28 10:24:00,72.7,63.5,29.59,South,180,1.3,2.7,73,0.00,,---,0.00,VWS V14.00,2013-06-28 14:24:00,
2013-06-28 10:29:00,72.9,63.7,29.59,SW,225,0.9,1.1,73,0.00,,---,0.00,VWS V14.00,2013-06-28 14:29:00,
2013-06-28 10:35:00,73.2,63.7,29.59,West,270,1.3,2.0,72,0.00,,---,0.00,VWS V14.00,2013-06-28 14:35:00,
2013-06-28 10:40:00,73.4,63.4,29.59,SSW,202,0.0,2.5,71,0.00,,---,0.00,VWS V14.00,2013-06-28 14:40:00,
2013-06-28 10:45:00,73.4,63.0,29.59,NE,45,0.0,2.2,70,0.00,,---,0.00,VWS V14.00,2013-06-28 14:45:00,
2013-06-28 10:50:00,73.8,63.4,29.59,WNW,292,4.0,4.0,70,0.00,,---,0.00,VWS V14.00,2013-06-28 14:50:00,
2013-06-28 10:55:00,73.8,63.0,29.59,West,270,2.0,4.3,69,0.00,,---,0.00,VWS V14.00,2013-06-28 14:55:00,
2013-06-28 11:00:00,73.9,63.1,29.59,WSW,248,1.1,1.6,69,0.00,,---,0.00,VWS V14.00,2013-06-28 15:00:00,
2013-06-28 11:04:00,74.3,63.9,29.59,SW,225,0.0,0.0,70,0.00,,---,0.00,VWS V14.00,2013-06-28 15:04:00,
2013-06-28 11:10:00,74.7,63.8,29.59,WNW,292,1.6,3.1,69,0.00,,---,0.00,VWS V14.00,2013-06-28 15:10:00,
2013-06-28 11:15:00,75.0,64.2,29.59,West,270,1.3,2.2,69,0.00,,---,0.00,VWS V14.00,2013-06-28 15:15:00,
2013-06-28 11:20:00,75.0,63.8,29.59,WNW,292,1.6,1.6,68,0.00,,---,0.00,VWS V14.00,2013-06-28 15:20:00,
2013-06-28 11:25:00,75.0,63.3,29.59,WSW,248,0.0,1.6,67,0.00,,---,0.00,VWS V14.00,2013-06-28 15:25:00,
2013-06-28 11:30:00,75.4,63.2,29.59,NNE,22,2.2,2.7,66,0.00,,---,0.00,VWS V14.00,2013-06-28 15:30:00,
2013-06-28 11:35:00,75.9,64.2,29.59,WSW,248,0.0,1.6,67,0.00,,---,0.00,VWS V14.00,2013-06-28 15:35:00,
2013-06-28 11:40:00,76.3,64.5,29.59,NE,45,0.0,2.5,67,0.00,,---,0.00,VWS V14.00,2013-06-28 15:40:00,
2013-06-28 11:45:00,76.6,63.6,29.59,West,270,1.1,2.2,64,0.00,,---,0.00,VWS V14.00,2013-06-28 15:45:00,
2013-06-28 11:50:00,76.6,63.6,29.59,West,270,0.0,2.0,64,0.00,,---,0.00,VWS V14.00,2013-06-28 15:50:00,
2013-06-28 11:55:00,77.0,63.0,29.59,SSW,202,2.5,2.9,62,0.00,,---,0.00,VWS V14.00,2013-06-28 15:55:00,
2013-06-28 12:00:00,77.5,63.5,29.59,SSW,202,1.1,2.2,62,0.00,,---,0.00,VWS V14.00,2013-06-28 16:00:00,
2013-06-28 12:05:00,77.9,63.8,29.59,West,270,2.9,4.3,62,0.00,,---,0.00,VWS V14.00,2013-06-28 16:05:00,
2013-06-28 12:10:00,78.3,63.7,29.59,SW,225,0.0,1.6,61,0.00,,---,0.00,VWS V14.00,2013-06-28 16:10:00,
2013-06-28 12:15:00,78.4,63.4,29.59,WNW,292,1.3,1.6,60,0.00,,---,0.00,VWS V14.00,2013-06-28 16:15:00,
2013-06-28 12:20:00,78.4,62.9,29.59,West,270,1.6,1.6,59,0.00,,---,0.00,VWS V14.00,2013-06-28 16:20:00,
2013-06-28 12:25:00,79.2,64.1,29.56,WNW,292,2.0,2.2,60,0.00,,---,0.00,VWS V14.00,2013-06-28 16:25:00,
2013-06-28 12:30:00,79.5,64.4,29.56,NW,315,2.2,2.2,60,0.00,,---,0.00,VWS V14.00,2013-06-28 16:30:00,
2013-06-28 12:35:00,80.1,64.5,29.56,WNW,292,2.0,4.0,59,0.00,,---,0.00,VWS V14.00,2013-06-28 16:35:00,
2013-06-28 12:40:00,80.1,63.5,29.56,WSW,248,1.3,3.1,57,0.00,,---,0.00,VWS V14.00,2013-06-28 16:40:00,
2013-06-28 12:45:00,79.9,63.8,29.56,North,0,2.5,2.5,58,0.00,,---,0.00,VWS V14.00,2013-06-28 16:45:00,
2013-06-28 12:50:00,79.9,63.3,29.56,West,270,1.6,3.1,57,0.00,,---,0.00,VWS V14.00,2013-06-28 16:50:00,
2013-06-28 12:55:00,79.7,62.6,29.59,South,180,2.0,2.0,56,0.00,,---,0.00,VWS V14.00,2013-06-28 16:55:00,
2013-06-28 13:00:00,79.9,64.3,29.59,West,270,2.0,3.1,59,0.00,,---,0.00,VWS V14.00,2013-06-28 17:00:00,
2013-06-28 13:06:00,81.0,64.8,29.59,WSW,248,1.3,3.8,58,0.00,,---,0.00,VWS V14.00,2013-06-28 17:06:00,
2013-06-28 13:11:00,81.1,64.0,29.59,WSW,248,2.9,2.9,56,0.00,,---,0.00,VWS V14.00,2013-06-28 17:11:00,
2013-06-28 13:16:00,81.7,64.5,29.59,West,270,2.9,2.9,56,0.00,,---,0.00,VWS V14.00,2013-06-28 17:16:00,
2013-06-28 13:20:00,81.9,64.6,29.59,West,270,1.1,2.7,56,0.00,,---,0.00,VWS V14.00,2013-06-28 17:20:00,
2013-06-28 13:26:00,82.0,62.7,29.59,WSW,248,0.0,2.2,52,0.00,,---,0.00,VWS V14.00,2013-06-28 17:26:00,
2013-06-28 13:31:00,81.7,62.4,29.59,WSW,248,1.3,1.3,52,0.00,,---,0.00,VWS V14.00,2013-06-28 17:31:00,
2013-06-28 13:36:00,81.9,63.1,29.59,West,270,0.0,0.0,53,0.00,,---,0.00,VWS V14.00,2013-06-28 17:36:00,
2013-06-28 13:41:00,81.7,63.4,29.62,NW,315,1.6,1.6,54,0.00,,---,0.00,VWS V14.00,2013-06-28 17:41:00,
2013-06-28 13:46:00,81.1,62.4,29.62,NNE,22,1.6,4.9,53,0.00,,---,0.00,VWS V14.00,2013-06-28 17:46:00,
2013-06-28 13:51:00,81.5,64.3,29.62,SW,225,2.5,2.5,56,0.00,,---,0.00,VWS V14.00,2013-06-28 17:51:00,
2013-06-28 13:55:00,80.8,63.6,29.59,NW,315,1.6,1.6,56,0.00,,---,0.00,VWS V14.00,2013-06-28 17:55:00,
2013-06-28 14:01:00,80.2,63.1,29.59,SW,225,0.9,0.9,56,0.00,,---,0.00,VWS V14.00,2013-06-28 18:01:00,
2013-06-28 14:06:00,80.2,63.6,29.59,WSW,248,1.1,1.1,57,0.00,,---,0.00,VWS V14.00,2013-06-28 18:06:00,
2013-06-28 14:11:00,80.2,64.6,29.59,SW,225,2.0,2.0,59,0.00,,---,0.00,VWS V14.00,2013-06-28 18:11:00,
2013-06-28 14:16:00,80.4,64.8,29.59,SW,225,2.7,2.7,59,0.00,,---,0.00,VWS V14.00,2013-06-28 18:16:00,
2013-06-28 14:21:00,80.1,64.0,29.59,West,270,1.1,1.1,58,0.00,,---,0.00,VWS V14.00,2013-06-28 18:21:00,
2013-06-28 14:26:00,80.4,64.3,29.59,West,270,1.1,1.3,58,0.00,,---,0.00,VWS V14.00,2013-06-28 18:26:00,
2013-06-28 14:31:00,80.6,64.5,29.59,NNE,22,2.0,2.5,58,0.00,,---,0.00,VWS V14.00,2013-06-28 18:31:00,
2013-06-28 14:36:00,80.6,64.5,29.59,SE,135,0.0,1.1,58,0.00,,---,0.00,VWS V14.00,2013-06-28 18:36:00,
2013-06-28 14:41:00,79.7,62.6,29.59,SSW,202,0.9,1.1,56,0.00,,---,0.00,VWS V14.00,2013-06-28 18:41:00,
2013-06-28 14:46:00,79.3,62.3,29.59,NNE,22,2.7,2.9,56,0.00,,---,0.00,VWS V14.00,2013-06-28 18:46:00,
2013-06-28 14:51:00,79.2,63.1,29.59,WSW,248,0.0,1.6,58,0.00,,---,0.00,VWS V14.00,2013-06-28 18:51:00,
2013-06-28 14:56:00,79.0,63.4,29.59,WNW,292,0.9,0.9,59,0.00,,---,0.00,VWS V14.00,2013-06-28 18:56:00,
2013-06-28 15:01:00,78.6,62.6,29.59,SSE,158,3.6,3.8,58,0.00,,---,0.00,VWS V14.00,2013-06-28 19:01:00,
2013-06-28 15:06:00,78.3,62.3,29.59,WSW,248,3.1,4.7,58,0.00,,---,0.00,VWS V14.00,2013-06-28 19:06:00,
2013-06-28 15:11:00,78.3,62.8,29.56,SW,225,0.9,1.6,59,0.00,,---,0.00,VWS V14.00,2013-06-28 19:11:00,
2013-06-28 15:16:00,78.3,62.8,29.56,SSW,202,1.3,2.9,59,0.00,,---,0.00,VWS V14.00,2013-06-28 19:16:00,
2013-06-28 15:21:00,78.8,63.3,29.56,WSW,248,3.1,3.6,59,0.00,,---,0.00,VWS V14.00,2013-06-28 19:21:00,
2013-06-28 15:26:00,78.6,62.1,29.56,West,270,1.1,5.6,57,0.00,,---,0.00,VWS V14.00,2013-06-28 19:26:00,
2013-06-28 15:31:00,78.4,62.0,29.56,SE,135,4.0,4.0,57,0.00,,---,0.00,VWS V14.00,2013-06-28 19:31:00,
2013-06-28 15:36:00,78.4,61.5,29.56,West,270,2.0,2.7,56,0.00,,---,0.00,VWS V14.00,2013-06-28 19:36:00,
2013-06-28 15:41:00,78.8,61.8,29.56,NNE,22,1.6,5.4,56,0.00,,---,0.00,VWS V14.00,2013-06-28 19:41:00,
2013-06-28 15:46:00,78.4,61.5,29.56,NNW,338,2.2,2.2,56,0.00,,---,0.00,VWS V14.00,2013-06-28 19:46:00,
2013-06-28 15:51:00,78.4,61.5,29.56,SSW,202,2.0,3.4,56,0.00,,---,0.00,VWS V14.00,2013-06-28 19:51:00,
2013-06-28 15:56:00,78.6,62.1,29.56,South,180,1.6,2.5,57,0.00,,---,0.00,VWS V14.00,2013-06-28 19:56:00,
2013-06-28 16:01:00,78.6,62.6,29.56,WSW,248,2.9,2.9,58,0.00,,---,0.00,VWS V14.00,2013-06-28 20:01:00,
2013-06-28 16:06:00,78.3,60.8,29.56,WSW,248,0.0,3.1,55,0.00,,---,0.00,VWS V14.00,2013-06-28 20:06:00,
2013-06-28 16:11:00,78.4,62.0,29.56,West,270,2.5,2.7,57,0.00,,---,0.00,VWS V14.00,2013-06-28 20:11:00,
2013-06-28 16:16:00,78.3,60.3,29.56,West,270,2.5,3.4,54,0.00,,---,0.00,VWS V14.00,2013-06-28 20:16:00,
2013-06-28 16:21:00,78.4,61.5,29.56,NNE,22,3.1,5.8,56,0.00,,---,0.00,VWS V14.00,2013-06-28 20:21:00,
2013-06-28 16:26:00,78.1,60.1,29.56,East,90,1.3,2.9,54,0.00,,---,0.00,VWS V14.00,2013-06-28 20:26:00,
2013-06-28 16:31:00,77.7,59.8,29.56,NNE,22,2.7,3.6,54,0.00,,---,0.00,VWS V14.00,2013-06-28 20:31:00,
2013-06-28 16:36:00,77.5,60.1,29.56,WSW,248,3.4,4.0,55,0.00,,---,0.00,VWS V14.00,2013-06-28 20:36:00,
2013-06-28 16:41:00,77.5,59.6,29.56,SSW,202,2.5,2.5,54,0.00,,---,0.00,VWS V14.00,2013-06-28 20:41:00,
2013-06-28 16:46:00,77.4,60.5,29.56,West,270,2.0,3.4,56,0.00,,---,0.00,VWS V14.00,2013-06-28 20:46:00,
2013-06-28 16:51:00,77.4,61.0,29.56,NNE,22,4.9,4.9,57,0.00,,---,0.00,VWS V14.00,2013-06-28 20:51:00,
2013-06-28 16:56:00,77.2,60.8,29.56,NE,45,1.6,1.6,57,0.00,,---,0.00,VWS V14.00,2013-06-28 20:56:00,
2013-06-28 17:01:00,76.8,60.0,29.56,WSW,248,1.6,3.8,56,0.00,,---,0.00,VWS V14.00,2013-06-28 21:01:00,
2013-06-28 17:06:00,76.5,59.1,29.56,North,0,2.0,2.5,55,0.00,,---,0.00,VWS V14.00,2013-06-28 21:06:00,
2013-06-28 17:11:00,76.5,59.6,29.56,WSW,248,1.6,2.7,56,0.00,,---,0.00,VWS V14.00,2013-06-28 21:11:00,
2013-06-28 17:16:00,76.6,59.8,29.56,West,270,1.1,4.7,56,0.00,,---,0.00,VWS V14.00,2013-06-28 21:16:00,
2013-06-28 17:21:00,76.6,59.8,29.56,ENE,68,1.6,3.4,56,0.00,,---,0.00,VWS V14.00,2013-06-28 21:21:00,
2013-06-28 17:26:00,76.6,59.8,29.56,WSW,248,0.9,4.9,56,0.00,,---,0.00,VWS V14.00,2013-06-28 21:26:00,
2013-06-28 17:31:00,76.5,59.1,29.56,WSW,248,2.0,2.7,55,0.00,,---,0.00,VWS V14.00,2013-06-28 21:31:00,
2013-06-28 17:36:00,76.5,59.1,29.56,WNW,292,2.0,4.9,55,0.00,,---,0.00,VWS V14.00,2013-06-28 21:36:00,
2013-06-28 17:41:00,76.5,58.6,29.56,WSW,248,2.7,4.9,54,0.00,,---,0.00,VWS V14.00,2013-06-28 21:41:00,
2013-06-28 17:46:00,76.3,57.9,29.56,SSE,158,3.6,3.6,53,0.00,,---,0.00,VWS V14.00,2013-06-28 21:46:00,
2013-06-28 17:51:00,76.3,58.9,29.56,WNW,292,4.9,4.9,55,0.00,,---,0.00,VWS V14.00,2013-06-28 21:51:00,
2013-06-28 17:56:00,76.1,58.3,29.56,South,180,2.0,2.0,54,0.00,,---,0.00,VWS V14.00,2013-06-28 21:56:00,
2013-06-28 18:01:00,76.1,58.3,29.56,South,180,4.3,4.3,54,0.00,,---,0.00,VWS V14.00,2013-06-28 22:01:00,
2013-06-28 18:06:00,76.1,58.8,29.56,ENE,68,2.9,2.9,55,0.00,,---,0.00,VWS V14.00,2013-06-28 22:06:00,
2013-06-28 18:11:00,75.7,58.4,29.59,ENE,68,2.5,4.9,55,0.00,,---,0.00,VWS V14.00,2013-06-28 22:11:00,
2013-06-28 18:16:00,75.7,59.0,29.59,SW,225,2.7,2.7,56,0.00,,---,0.00,VWS V14.00,2013-06-28 22:16:00,
2013-06-28 18:21:00,75.7,59.0,29.59,WSW,248,2.0,3.6,56,0.00,,---,0.00,VWS V14.00,2013-06-28 22:21:00,
2013-06-28 18:26:00,75.7,59.0,29.59,WSW,248,6.0,6.0,56,0.00,,---,0.00,VWS V14.00,2013-06-28 22:26:00,
2013-06-28 18:29:00,75.6,58.3,29.59,North,0,2.7,2.7,55,0.00,,---,0.00,VWS V14.00,2013-06-28 22:29:00,
2013-06-28 18:34:00,75.6,58.3,29.59,NE,45,4.3,4.3,55,0.00,,---,0.00,VWS V14.00,2013-06-28 22:34:00,
2013-06-28 18:39:00,75.2,57.9,29.59,West,270,0.9,2.0,55,0.00,,---,0.00,VWS V14.00,2013-06-28 22:39:00,
2013-06-28 18:44:00,74.8,59.1,29.59,WSW,248,0.0,0.0,58,0.00,,---,0.00,VWS V14.00,2013-06-28 22:44:00,
2013-06-28 18:49:00,74.8,58.6,29.59,WNW,292,0.9,3.1,57,0.00,,---,0.00,VWS V14.00,2013-06-28 22:49:00,
2013-06-28 18:54:00,74.7,58.4,29.59,West,270,0.9,3.1,57,0.00,,---,0.00,VWS V14.00,2013-06-28 22:54:00,
2013-06-28 18:59:00,74.5,58.3,29.59,ESE,112,1.3,1.6,57,0.00,,---,0.00,VWS V14.00,2013-06-28 22:59:00,
2013-06-28 19:04:00,74.3,58.6,29.59,WSW,248,0.9,0.9,58,0.00,,---,0.00,VWS V14.00,2013-06-28 23:04:00,
2013-06-28 19:09:00,73.9,58.7,29.59,WSW,248,1.1,1.6,59,0.00,,---,0.00,VWS V14.00,2013-06-28 23:09:00,
2013-06-28 19:14:00,73.8,58.5,29.59,West,270,1.1,3.4,59,0.00,,---,0.00,VWS V14.00,2013-06-28 23:14:00,
2013-06-28 19:19:00,73.8,58.5,29.59,WSW,248,0.0,1.3,59,0.00,,---,0.00,VWS V14.00,2013-06-28 23:19:00,
2013-06-28 19:24:00,73.9,58.7,29.56,NNE,22,1.3,4.0,59,0.00,,---,0.00,VWS V14.00,2013-06-28 23:24:00,
2013-06-28 19:29:00,74.1,59.4,29.56,West,270,1.1,1.3,60,0.00,,---,0.00,VWS V14.00,2013-06-28 23:29:00,
2013-06-28 19:34:00,74.3,59.5,29.56,West,270,2.0,2.0,60,0.00,,---,0.00,VWS V14.00,2013-06-28 23:34:00,
2013-06-28 19:39:00,74.1,59.8,29.56,West,270,0.0,0.0,61,0.00,,---,0.00,VWS V14.00,2013-06-28 23:39:00,
2013-06-28 19:44:00,74.1,59.4,29.56,West,270,0.0,0.9,60,0.00,,---,0.00,VWS V14.00,2013-06-28 23:44:00,
2013-06-28 19:49:00,74.1,59.4,29.56,WSW,248,0.9,2.0,60,0.00,,---,0.00,VWS V14.00,2013-06-28 23:49:00,
2013-06-28 19:54:00,74.1,59.4,29.56,West,270,1.3,3.1,60,0.00,,---,0.00,VWS V14.00,2013-06-28 23:54:00,
2013-06-28 19:59:00,73.9,59.2,29.56,SW,225,0.0,1.1,60,0.00,,---,0.00,VWS V14.00,2013-06-28 23:59:00,
2013-06-28 20:04:00,73.8,59.5,29.56,WSW,248,1.1,1.6,61,0.00,,---,0.00,VWS V14.00,2013-06-29 00:04:00,
2013-06-28 20:09:00,73.4,59.2,29.59,WSW,248,0.0,0.0,61,0.00,,---,0.00,VWS V14.00,2013-06-29 00:09:00,
2013-06-28 20:14:00,73.2,59.4,29.59,West,270,2.5,2.5,62,0.00,,---,0.00,VWS V14.00,2013-06-29 00:14:00,
2013-06-28 20:19:00,73.0,59.3,29.59,West,270,0.0,2.5,62,0.00,,---,0.00,VWS V14.00,2013-06-29 00:19:00,
2013-06-28 20:24:00,73.0,59.7,29.59,West,270,0.0,0.0,63,0.00,,---,0.00,VWS V14.00,2013-06-29 00:24:00,
2013-06-28 20:29:00,72.9,59.5,29.59,WSW,248,0.9,2.5,63,0.00,,---,0.00,VWS V14.00,2013-06-29 00:29:00,
2013-06-28 20:34:00,72.7,59.8,29.59,WSW,248,0.0,1.6,64,0.00,,---,0.00,VWS V14.00,2013-06-29 00:34:00,
2013-06-28 20:39:00,72.7,59.8,29.59,WSW,248,0.0,0.0,64,0.00,,---,0.00,VWS V14.00,2013-06-29 00:39:00,
2013-06-28 20:44:00,72.5,60.1,29.59,West,270,0.0,2.2,65,0.00,,---,0.00,VWS V14.00,2013-06-29 00:44:00,
2013-06-28 20:49:00,72.5,60.1,29.59,West,270,2.7,2.7,65,0.00,,---,0.00,VWS V14.00,2013-06-29 00:49:00,
2013-06-28 20:54:00,72.3,59.9,29.56,West,270,0.0,0.0,65,0.00,,---,0.00,VWS V14.00,2013-06-29 00:54:00,
2013-06-28 20:59:00,72.1,59.7,29.56,West,270,0.0,0.0,65,0.00,,---,0.00,VWS V14.00,2013-06-29 00:59:00,
2013-06-28 21:00:00,72.1,60.2,29.56,West,270,0.0,0.0,66,0.00,,---,0.00,VWS V14.00,2013-06-29 01:00:00,
2013-06-28 21:05:00,72.0,60.0,29.56,West,270,0.0,0.0,66,0.00,,---,0.00,VWS V14.00,2013-06-29 01:05:00,
2013-06-28 21:10:00,71.8,60.2,29.56,West,270,0.0,0.0,67,0.00,,---,0.00,VWS V14.00,2013-06-29 01:10:00,
2013-06-28 21:15:00,71.6,60.1,29.56,West,270,0.0,0.0,67,0.00,,---,0.00,VWS V14.00,2013-06-29 01:15:00,
2013-06-28 21:20:00,71.4,60.3,29.56,West,270,0.0,0.0,68,0.00,,---,0.00,VWS V14.00,2013-06-29 01:20:00,
2013-06-28 21:25:00,71.2,60.2,29.56,West,270,0.0,0.0,68,0.00,,---,0.00,VWS V14.00,2013-06-29 01:25:00,
2013-06-28 21:30:00,71.1,60.0,29.56,West,270,0.0,0.0,68,0.00,,---,0.00,VWS V14.00,2013-06-29 01:30:00,
2013-06-28 21:35:00,70.9,60.2,29.56,West,270,0.0,0.0,69,0.00,,---,0.00,VWS V14.00,2013-06-29 01:35:00,
2013-06-28 21:40:00,70.7,60.0,29.56,West,270,0.0,0.0,69,0.00,,---,0.00,VWS V14.00,2013-06-29 01:40:00,
2013-06-28 21:45:00,70.5,60.3,29.56,West,270,0.0,0.0,70,0.00,,---,0.00,VWS V14.00,2013-06-29 01:45:00,
2013-06-28 21:50:00,70.3,60.5,29.56,West,270,0.0,0.0,71,0.00,,---,0.00,VWS V14.00,2013-06-29 01:50:00,
2013-06-28 21:55:00,70.0,60.2,29.56,West,270,0.0,0.0,71,0.00,,---,0.00,VWS V14.00,2013-06-29 01:55:00,
2013-06-28 22:00:00,69.8,60.0,29.56,West,270,0.0,0.0,71,0.00,,---,0.00,VWS V14.00,2013-06-29 02:00:00,
2013-06-28 22:05:00,69.6,60.2,29.56,West,270,0.0,0.0,72,0.00,,---,0.00,VWS V14.00,2013-06-29 02:05:00,
2013-06-28 22:11:00,69.6,60.2,29.56,West,270,0.0,0.0,72,0.00,,---,0.00,VWS V14.00,2013-06-29 02:11:00,
2013-06-28 22:16:00,69.4,60.0,29.56,West,270,0.0,0.0,72,0.00,,---,0.00,VWS V14.00,2013-06-29 02:16:00,
2013-06-28 22:21:00,69.3,59.9,29.56,West,270,0.0,0.0,72,0.00,,---,0.00,VWS V14.00,2013-06-29 02:21:00,
2013-06-28 22:26:00,69.3,60.2,29.56,West,270,0.0,0.0,73,0.00,,---,0.00,VWS V14.00,2013-06-29 02:26:00,
2013-06-28 22:31:00,69.1,60.1,29.56,West,270,0.0,0.0,73,0.00,,---,0.00,VWS V14.00,2013-06-29 02:31:00,
2013-06-28 22:36:00,69.1,60.1,29.56,West,270,0.0,0.0,73,0.00,,---,0.00,VWS V14.00,2013-06-29 02:36:00,
2013-06-28 22:41:00,68.9,59.9,29.56,West,270,0.0,0.0,73,0.00,,---,0.00,VWS V14.00,2013-06-29 02:41:00,
2013-06-28 22:46:00,68.5,59.9,29.56,West,270,0.0,0.0,74,0.00,,---,0.00,VWS V14.00,2013-06-29 02:46:00,
2013-06-28 22:51:00,68.5,59.9,29.56,West,270,0.0,0.0,74,0.00,,---,0.00,VWS V14.00,2013-06-29 02:51:00,
2013-06-28 22:56:00,68.4,60.1,29.56,West,270,0.0,0.0,75,0.00,,---,0.00,VWS V14.00,2013-06-29 02:56:00,
2013-06-28 23:01:00,68.2,60.0,29.56,WSW,248,0.0,0.0,75,0.00,,---,0.00,VWS V14.00,2013-06-29 03:01:00,
2013-06-28 23:06:00,68.0,60.2,29.56,WSW,248,0.0,0.0,76,0.00,,---,0.00,VWS V14.00,2013-06-29 03:06:00,
2013-06-28 23:11:00,68.0,60.2,29.56,WSW,248,0.0,0.0,76,0.00,,---,0.00,VWS V14.00,2013-06-29 03:11:00,
2013-06-28 23:12:00,68.0,60.2,29.56,WSW,248,0.0,0.0,76,0.00,,---,0.00,VWS V14.00,2013-06-29 03:12:00,
2013-06-28 23:17:00,67.8,60.3,29.56,WSW,248,0.0,0.0,77,0.00,,---,0.00,VWS V14.00,2013-06-29 03:17:00,
2013-06-28 23:22:00,67.6,60.2,29.56,WSW,248,0.0,0.0,77,0.00,,---,0.00,VWS V14.00,2013-06-29 03:22:00,
2013-06-28 23:27:00,67.6,60.5,29.53,WSW,248,0.0,0.0,78,0.00,,---,0.00,VWS V14.00,2013-06-29 03:27:00,
2013-06-28 23:32:00,67.6,60.5,29.53,WSW,248,0.0,0.0,78,0.00,,---,0.00,VWS V14.00,2013-06-29 03:32:00,
2013-06-28 23:37:00,67.5,60.4,29.53,WSW,248,0.0,0.0,78,0.00,,---,0.00,VWS V14.00,2013-06-29 03:37:00,
2013-06-28 23:42:00,67.5,60.7,29.56,WSW,248,0.0,0.0,79,0.00,,---,0.00,VWS V14.00,2013-06-29 03:42:00,
2013-06-28 23:47:00,67.5,60.7,29.56,WSW,248,0.0,0.0,79,0.00,,---,0.00,VWS V14.00,2013-06-29 03:47:00,
2013-06-28 23:52:00,67.3,60.9,29.56,WSW,248,0.0,0.0,80,0.00,,---,0.00,VWS V14.00,2013-06-29 03:52:00,
2013-06-28 23:57:00,67.3,60.9,29.53,WSW,248,0.0,0.0,80,0.00,,---,0.00,VWS V14.00,2013-06-29 03:57:00,